Total_Precipitation_Accumulation
0.59 0.65 0.76 0.94 1.14 1.18 1.22 1.36 1.41 1.58 1.81 2.02 2.20 2.24 2.28 2.20 2.15 2.06 1.98 1.92 1.95 1.96 2.00 1.96 2.07 2.13 2.07 1.96 1.88 1.80 1.73 1.59 1.45 1.52 1.59 1.48 1.21 1.02 0.93 0.91 0.89 0.79 0.67
0.61 0.68 0.78 0.92 1.16 1.22 1.22 1.35 1.46 1.56 1.63 1.78 1.94 2.05 2.19 2.25 2.19 2.10 2.10 1.98 1.90 1.87 1.95 1.97 1.91 1.92 1.95 1.93 1.86 1.81 1.78 1.73 1.61 1.59 1.69 1.71 1.62 1.28 0.97 0.88 0.87 0.86 0.83
0.66 0.69 0.77 0.89 1.15 1.29 1.29 1.32 1.41 1.56 1.63 1.77 1.99 2.12 2.33 2.42 2.45 2.25 2.10 2.04 1.99 1.89 1.85 1.94 1.96 1.89 1.86 1.84 1.79 1.73 1.67 1.68 1.58 1.43 1.61 1.69 1.48 1.20 1.01 0.89 0.80 0.77 0.84
0.66 0.73 0.74 0.85 1.03 1.21 1.33 1.38 1.49 1.60 1.63 1.81 2.02 2.04 2.20 2.25 2.21 2.08 1.99 1.93 1.94 1.92 1.85 1.85 1.91 1.95 1.85 1.74 1.71 1.71 1.67 1.71 1.72 1.54 1.35 1.33 1.25 1.23 1.08 0.94 0.89 0.84 0.81
0.64 0.71 0.74 0.74 0.87 1.03 1.22 1.36 1.53 1.68 1.70 1.74 1.93 2.01 1.97 2.05 2.15 2.19 2.13 2.02 1.96 1.90 1.84 1.84 1.84 1.85 1.83 1.71 1.65 1.67 1.69 1.71 1.70 1.64 1.43 1.27 1.10 1.04 1.13 0.98 0.89 0.97 0.93
0.69 0.72 0.71 0.70 0.81 0.97 1.15 1.29 1.46 1.60 1.69 1.71 1.80 1.98 1.96 1.94 2.04 2.21 2.27 2.20 2.07 1.97 1.83 1.74 1.77 1.74 1.67 1.63 1.59 1.57 1.55 1.59 1.62 1.58 1.50 1.43 1.35 1.15 1.13 1.07 0.88 0.88 0.90
0.72 0.77 0.67 0.70 0.75 0.87 1.04 1.20 1.39 1.47 1.55 1.61 1.68 1.75 1.91 1.90 1.88 1.91 2.01 2.18 2.14 1.99 1.88 1.80 1.71 1.68 1.60 1.53 1.51 1.52 1.51 1.46 1.49 1.52 1.46 1.36 1.27 1.19 1.23 1.32 1.20 1.05 0.93
0.66 0.71 0.67 0.69 0.73 0.77 0.89 1.05 1.19 1.37 1.51 1.58 1.61 1.65 1.74 1.88 1.82 1.80 1.75 1.88 1.97 1.85 1.75 1.79 1.71 1.64 1.61 1.59 1.56 1.52 1.49 1.50 1.44 1.37 1.36 1.38 1.27 1.24 1.34 1.46 1.56 1.50 1.16
0.71 0.67 0.68 0.71 0.70 0.76 0.82 0.96 1.06 1.21 1.43 1.58 1.61 1.64 1.68 1.76 1.78 1.74 1.73 1.73 1.76 1.79 1.78 1.77 1.75 1.68 1.70 1.73 1.73 1.67 1.54 1.50 1.48 1.43 1.35 1.36 1.33 1.29 1.29 1.34 1.50 1.80 1.65
0.77 0.75 0.71 0.76 0.75 0.76 0.80 0.86 1.02 1.12 1.27 1.48 1.66 1.66 1.63 1.61 1.71 1.77 1.80 1.77 1.73 1.75 1.77 1.78 1.78 1.73 1.66 1.72 1.78 1.72 1.63 1.61 1.55 1.54 1.52 1.40 1.32 1.34 1.37 1.44 1.44 1.52 1.68
0.79 0.74 0.68 0.70 0.74 0.77 0.86 0.89 0.98 1.08 1.20 1.30 1.49 1.61 1.62 1.62 1.67 1.72 1.71 1.75 1.75 1.73 1.70 1.66 1.70 1.76 1.74 1.68 1.73 1.69 1.63 1.63 1.56 1.53 1.56 1.45 1.35 1.46 1.49 1.55 1.58 1.51 1.57
0.72 0.72 0.66 0.67 0.74 0.82 0.89 0.97 1.01 1.00 1.09 1.20 1.32 1.47 1.57 1.60 1.63 1.62 1.65 1.72 1.73 1.72 1.65 1.60 1.61 1.66 1.69 1.66 1.68 1.67 1.62 1.61 1.58 1.53 1.55 1.54 1.45 1.46 1.49 1.59 1.59 1.51 1.44
0.69 0.73 0.74 0.71 0.75 0.83 0.91 0.97 1.04 0.97 0.99 1.17 1.28 1.42 1.52 1.52 1.52 1.47 1.55 1.73 1.82 1.80 1.66 1.60 1.60 1.63 1.69 1.66 1.61 1.68 1.68 1.59 1.51 1.48 1.53 1.56 1.56 1.48 1.43 1.51 1.56 1.49 1.45
0.63 0.71 0.82 0.79 0.74 0.79 0.84 0.87 0.97 1.01 1.00 1.06 1.21 1.35 1.46 1.44 1.39 1.36 1.38 1.53 1.72 1.81 1.72 1.60 1.56 1.63 1.74 1.75 1.72 1.79 1.75 1.63 1.50 1.40 1.41 1.49 1.62 1.63 1.61 1.62 1.58 1.61 1.69
0.56 0.71 0.82 0.82 0.83 0.86 0.88 0.85 0.88 0.99 1.05 1.01 1.10 1.19 1.32 1.40 1.37 1.32 1.33 1.44 1.56 1.61 1.65 1.66 1.60 1.62 1.85 2.07 2.19 2.07 1.79 1.61 1.52 1.35 1.27 1.36 1.63 1.84 2.01 2.04 1.88 1.89 2.06
0.52 0.59 0.67 0.75 0.85 0.94 0.96 0.94 0.91 0.95 1.03 1.01 1.06 1.10 1.25 1.38 1.38 1.30 1.34 1.47 1.57 1.56 1.58 1.64 1.62 1.59 1.78 2.22 2.44 2.05 1.66 1.50 1.46 1.40 1.26 1.28 1.56 1.76 1.93 2.08 2.04 2.04 2.22
0.48 0.49 0.59 0.73 0.83 0.92 0.95 0.97 0.94 0.97 1.02 1.03 1.05 1.11 1.24 1.31 1.36 1.34 1.36 1.47 1.58 1.58 1.55 1.57 1.59 1.57 1.64 2.03 2.24 1.99 1.62 1.46 1.38 1.32 1.29 1.32 1.42 1.58 1.61 1.78 1.85 1.83 1.98
0.50 0.50 0.59 0.71 0.75 0.83 0.87 0.92 0.88 1.00 1.06 1.06 1.05 1.10 1.18 1.22 1.32 1.35 1.38 1.49 1.56 1.52 1.51 1.53 1.52 1.50 1.58 1.91 2.14 1.97 1.64 1.53 1.44 1.40 1.31 1.24 1.28 1.43 1.61 1.72 1.72 1.62 1.65
0.54 0.56 0.60 0.68 0.69 0.76 0.82 0.87 0.83 0.92 1.01 1.05 1.01 1.03 1.11 1.16 1.25 1.31 1.38 1.47 1.56 1.52 1.46 1.43 1.49 1.46 1.49 1.83 2.16 2.03 1.67 1.60 1.50 1.46 1.37 1.24 1.19 1.43 1.63 1.60 1.57 1.49 1.51
0.47 0.55 0.58 0.62 0.64 0.70 0.74 0.78 0.83 0.86 0.94 1.00 0.92 0.97 1.04 1.07 1.17 1.23 1.31 1.39 1.42 1.44 1.44 1.39 1.41 1.41 1.40 1.66 2.08 2.18 1.72 1.60 1.50 1.48 1.41 1.47 1.43 1.55 1.57 1.45 1.54 1.65 1.52
0.46 0.50 0.52 0.58 0.64 0.68 0.69 0.72 0.80 0.87 0.90 0.98 0.91 0.95 0.98 1.03 1.11 1.18 1.20 1.28 1.35 1.37 1.43 1.42 1.39 1.38 1.40 1.51 1.81 2.16 1.85 1.68 1.53 1.51 1.48 1.41 1.59 1.60 1.56 1.52 1.48 1.68 1.58
0.46 0.48 0.51 0.56 0.60 0.63 0.67 0.69 0.74 0.81 0.88 0.93 0.92 0.98 1.02 1.03 1.07 1.13 1.13 1.17 1.28 1.35 1.38 1.42 1.45 1.43 1.41 1.48 1.69 1.94 1.91 1.79 1.59 1.50 1.38 1.35 1.54 1.58 1.60 1.55 1.60 1.66 1.62
0.50 0.50 0.54 0.55 0.57 0.62 0.67 0.73 0.76 0.78 0.87 0.91 0.91 0.97 1.06 1.08 1.09 1.09 1.09 1.13 1.20 1.29 1.34 1.36 1.36 1.39 1.35 1.46 1.73 1.71 1.73 1.75 1.66 1.64 1.66 1.59 1.66 1.67 1.55 1.53 1.57 1.52 1.42
0.54 0.55 0.58 0.58 0.60 0.63 0.69 0.77 0.80 0.78 0.84 0.88 0.89 0.94 1.01 1.06 1.10 1.06 1.01 1.01 1.11 1.24 1.27 1.29 1.25 1.21 1.25 1.45 1.66 1.58 1.53 1.62 1.71 1.77 1.75 1.73 1.75 1.70 1.62 1.55 1.42 1.30 1.32
0.57 0.59 0.61 0.64 0.67 0.66 0.72 0.78 0.81 0.80 0.83 0.82 0.81 0.87 0.90 0.99 1.09 1.08 1.02 1.01 1.01 1.21 1.36 1.32 1.27 1.30 1.41 1.58 1.76 1.69 1.64 1.67 1.74 1.83 1.87 1.80 1.75 1.73 1.59 1.40 1.25 1.20 1.28
0.59 0.61 0.63 0.66 0.72 0.71 0.74 0.78 0.80 0.78 0.78 0.79 0.77 0.80 0.84 0.89 0.98 1.02 1.06 1.18 1.16 1.19 1.21 1.23 1.30 1.29 1.44 1.55 1.57 1.61 1.67 1.78 1.86 1.91 1.87 1.67 1.48 1.41 1.34 1.26 1.19 1.16 1.17